| time (UTC) | temp C | wind direction | speed KPH | gust KPH | rain 1hr cm | rain 24hr cm | rain mn cm | humidity % | barometer mb |
| 20260503204115 | 12 | 0.0 | 0.0 | 0.00 | 0.00 | 0.00 | 84 | 1014.6 | |
| 20260503203112 | 12 | 0.0 | 0.0 | 0.00 | 0.03 | 0.00 | 83 | 1014.5 | |
| 20260503202109 | 12 | 0.0 | 0.0 | 0.00 | 0.03 | 0.00 | 83 | 1014.5 | |
| 20260503201105 | 12 | 0.0 | 0.0 | 0.00 | 0.03 | 0.00 | 83 | 1014.4 | |
| 20260503195059 | 12 | 0.0 | 0.0 | 0.00 | 0.03 | 0.00 | 83 | 1014.1 | |
| 20260503194055 | 12 | 0.0 | 0.0 | 0.00 | 0.03 | 0.00 | 82 | 1014.0 | |
| 20260503193053 | 12 | 0.0 | 0.0 | 0.00 | 0.03 | 0.00 | 82 | 1014.0 | |
| 20260503192050 | 12 | 0.0 | 0.0 | 0.00 | 0.03 | 0.00 | 81 | 1013.9 | |
| 20260503191046 | 12 | 0.0 | 0.0 | 0.00 | 0.03 | 0.00 | 81 | 1013.8 | |
| 20260503190103 | 12 | 0.0 | 0.0 | 0.00 | 0.03 | 0.00 | 80 | 1013.8 | |
| 20260503185040 | 12 | 0.0 | 0.0 | 0.00 | 0.03 | 0.00 | 80 | 1013.7 | |
| 20260503184036 | 12 | 0.0 | 0.0 | 0.00 | 0.03 | 0.00 | 80 | 1013.6 | |
| 20260503183054 | 12 | 0.0 | 0.0 | 0.00 | 0.03 | 0.00 | 80 | 1013.5 | |
| 20260503182030 | 12 | 0.0 | 0.0 | 0.00 | 0.03 | 0.00 | 79 | 1013.5 | |
| 20260503181047 | 13 | 0.0 | 0.0 | 0.00 | 0.03 | 0.00 | 76 | 1013.4 | |
| 20260503180025 | 13 | 0.0 | 0.0 | 0.00 | 0.03 | 0.00 | 75 | 1013.3 | |
| 20260503175020 | 13 | 0.0 | 0.0 | 0.00 | 0.03 | 0.00 | 74 | 1013.2 | |
| 20260503174017 | 13 | 0.0 | 0.0 | 0.00 | 0.03 | 0.00 | 74 | 1013.2 | |
| 20260503173114 | 13 | 0.0 | 0.0 | 0.00 | 0.03 | 0.00 | 74 | 1013.0 | |
| 20260503172111 | 13 | 0.0 | 0.0 | 0.00 | 0.03 | 0.00 | 74 | 1013.0 | |
| 20260503171108 | 13 | 0.0 | 0.0 | 0.00 | 0.03 | 0.00 | 74 | 1012.9 | |
| 20260503170104 | 14 | 0.0 | 0.0 | 0.00 | 0.03 | 0.00 | 73 | 1012.9 | |
| 20260503140107 | 15 | 0.0 | 0.0 | 0.00 | 0.03 | 0.00 | 67 | 1013.2 | |
| 20260503131051 | 16 | 0.0 | 0.0 | 0.00 | 0.03 | 0.00 | 62 | 1013.1 | |
| 20260503110109 | 14 | 0.0 | 0.0 | 0.00 | 0.03 | 0.00 | 73 | 1012.9 | |
| 20260503081015 | 11 | 0.0 | 0.0 | 0.00 | 0.03 | 0.00 | 91 | 1012.8 | |
| 20260503080112 | 11 | 0.0 | 0.0 | 0.00 | 0.03 | 0.00 | 91 | 1012.9 | |
| 20260503072059 | 11 | 0.0 | 1.6 | 0.00 | 0.03 | 0.00 | 91 | 1012.8 | |
| 20260503071056 | 11 | 0.0 | 0.0 | 0.00 | 0.03 | 0.00 | 91 | 1012.7 | |
| 20260503055030 | 11 | 0.0 | 0.0 | 0.00 | 0.03 | 0.00 | 92 | 1012.1 | |
| 20260503054028 | 11 | 0.0 | 0.0 | 0.00 | 0.03 | 0.00 | 92 | 1012.1 | |
| 20260503053044 | 11 | 0.0 | 0.0 | 0.00 | 0.03 | 0.00 | 92 | 1012.0 | |
| 20260503052021 | 11 | 0.0 | 0.0 | 0.00 | 0.03 | 0.00 | 92 | 1012.0 | |
| 20260503051018 | 11 | 0.0 | 0.0 | 0.00 | 0.03 | 0.00 | 92 | 1011.9 | |
| 20260503050115 | 11 | 0.0 | 0.0 | 0.00 | 0.03 | 0.00 | 92 | 1011.8 | |
| 20260503045112 | 11 | 0.0 | 0.0 | 0.00 | 0.03 | 0.00 | 92 | 1011.8 | |
| 20260503044108 | 11 | 0.0 | 0.0 | 0.00 | 0.03 | 0.00 | 92 | 1011.9 | |
| 20260503043105 | 11 | 0.0 | 0.0 | 0.00 | 0.03 | 0.00 | 92 | 1011.9 | |
| 20260503042102 | 11 | 0.0 | 0.0 | 0.00 | 0.03 | 0.00 | 92 | 1012.0 | |
| 20260503041140 | 11 | 0.0 | 0.0 | 0.00 | 0.03 | 0.00 | 92 | 1011.9 | |
| 20260503040055 | 11 | 0.0 | 0.0 | 0.00 | 0.03 | 0.00 | 92 | 1012.0 | |
| 20260503035112 | 11 | 0.0 | 0.0 | 0.00 | 0.03 | 0.00 | 92 | 1012.1 | |
| 20260503034049 | 11 | 0.0 | 0.0 | 0.00 | 0.03 | 0.00 | 92 | 1012.2 | |
| 20260503033046 | 11 | 0.0 | 0.0 | 0.00 | 0.03 | 0.00 | 92 | 1012.3 | |
| 20260503032043 | 11 | 0.0 | 0.0 | 0.00 | 0.03 | 0.00 | 92 | 1012.3 | |
| 20260503031040 | 11 | 0.0 | 0.0 | 0.00 | 0.03 | 0.00 | 92 | 1012.3 | |
| 20260503030037 | 11 | 0.0 | 0.0 | 0.00 | 0.03 | 0.00 | 92 | 1012.4 | |
| 20260503025033 | 11 | 0.0 | 0.0 | 0.00 | 0.03 | 0.00 | 92 | 1012.3 | |
| 20260503024030 | 11 | 0.0 | 0.0 | 0.00 | 0.03 | 0.00 | 92 | 1012.3 | |
| 20260503023047 | 11 | 0.0 | 0.0 | 0.00 | 0.03 | 0.00 | 92 | 1012.4 | |
| 20260503022024 | 11 | 0.0 | 0.0 | 0.00 | 0.03 | 0.00 | 92 | 1012.4 | |
| 20260503021020 | 11 | 0.0 | 0.0 | 0.00 | 0.03 | 0.00 | 92 | 1012.4 | |
| 20260503020017 | 11 | 0.0 | 0.0 | 0.00 | 0.03 | 0.00 | 92 | 1012.5 | |
| 20260503015114 | 11 | 0.0 | 0.0 | 0.00 | 0.03 | 0.00 | 92 | 1012.4 | |
| 20260503014111 | 11 | 0.0 | 0.0 | 0.00 | 0.03 | 0.00 | 92 | 1012.5 | |
| 20260503013107 | 11 | 0.0 | 0.0 | 0.00 | 0.03 | 0.00 | 92 | 1012.6 | |
| 20260503012124 | 11 | 0.0 | 0.0 | 0.00 | 0.03 | 0.00 | 92 | 1012.7 | |
| 20260503011101 | 11 | 0.0 | 0.0 | 0.00 | 0.03 | 0.00 | 92 | 1012.8 | |
| 20260503010058 | 11 | 0.0 | 0.0 | 0.00 | 0.03 | 0.00 | 92 | 1012.8 | |
| 20260503005055 | 11 | 0.0 | 0.0 | 0.00 | 0.03 | 0.00 | 91 | 1012.9 | |
| 20260503004112 | 11 | 0.0 | 0.0 | 0.00 | 0.03 | 0.00 | 91 | 1012.9 | |
| 20260503003048 | 11 | 0.0 | 0.0 | 0.00 | 0.03 | 0.00 | 91 | 1013.0 | |
| 20260503002045 | 11 | 0.0 | 0.0 | 0.00 | 0.03 | 0.00 | 91 | 1013.0 | |
| 20260503001102 | 11 | 0.0 | 0.0 | 0.00 | 0.03 | 0.00 | 92 | 1013.1 | |
| 20260503000039 | 11 | 0.0 | 0.0 | 0.00 | 0.03 | 0.00 | 91 | 1013.0 | |
| 20260502235035 | 11 | 0.0 | 0.0 | 0.00 | 0.03 | 0.00 | 91 | 1013.1 | |
| 20260502234032 | 11 | 0.0 | 0.0 | 0.00 | 0.03 | 0.00 | 91 | 1013.0 | |
| 20260502233029 | 11 | 0.0 | 0.0 | 0.00 | 0.03 | 0.00 | 90 | 1013.2 | |
| 20260502232026 | 11 | 0.0 | 0.0 | 0.00 | 0.03 | 0.00 | 91 | 1013.2 | |
| 20260502231023 | 11 | 0.0 | 0.0 | 0.00 | 0.03 | 0.00 | 89 | 1013.2 | |
| 20260502230019 | 11 | 0.0 | 0.0 | 0.00 | 0.03 | 0.00 | 89 | 1013.2 | |
| 20260502225016 | 11 | 0.0 | 0.0 | 0.00 | 0.03 | 0.03 | 89 | 1013.1 | |
| 20260502224113 | 11 | 0.0 | 0.0 | 0.00 | 0.03 | 0.03 | 89 | 1013.2 | |
| 20260502223110 | 11 | 0.0 | 0.0 | 0.00 | 0.03 | 0.03 | 89 | 1013.2 | |
| 20260502222106 | 11 | 0.0 | 0.0 | 0.00 | 0.03 | 0.03 | 89 | 1013.3 | |
| 20260502221104 | 11 | 0.0 | 0.0 | 0.00 | 0.03 | 0.03 | 89 | 1013.2 | |
| 20260502220100 | 11 | 0.0 | 0.0 | 0.00 | 0.03 | 0.03 | 88 | 1013.2 | |
| 20260502215057 | 11 | 0.0 | 0.0 | 0.00 | 0.03 | 0.03 | 87 | 1013.2 | |
| 20260502214053 | 11 | 0.0 | 0.0 | 0.00 | 0.03 | 0.03 | 87 | 1013.2 | |
| 20260502213050 | 11 | 0.0 | 0.0 | 0.03 | 0.03 | 0.03 | 86 | 1013.2 | |
| 20260502212107 | 11 | 0.0 | 0.0 | 0.03 | 0.03 | 0.03 | 85 | 1013.2 | |
| 20260502211044 | 11 | 0.0 | 0.0 | 0.03 | 0.03 | 0.03 | 85 | 1013.2 | |
| 20260502210041 | 12 | 0.0 | 0.0 | 0.03 | 0.03 | 0.03 | 83 | 1013.1 | |
| 20260502205038 | 12 | 0.0 | 0.0 | 0.03 | 0.03 | 0.03 | 83 | 1013.1 |